Watertown, NY

8:56 AM EDT on May 27, 2018 (GMT -0400)
Watertown International

Weather History for KART - February, 2014

Change the Weather History Date:

Thursday, February 27, 2014

  Actual Average Record
Temperature  
Mean Temperature 10 °F 24 °F  
Max Temperature 16 °F 35 °F 63 °F (2000)
Min Temperature 4 °F 14 °F -25 °F (2006)
Degree Days  
Heating Degree Days 55 41  
Month to date heating degree days 1238 1190  
Since 1 July heating degree days 5572 5401  
Cooling Degree Days 0 0  
Month to date cooling degree days 0 0  
Year to date cooling degree days 0 0  
Moisture  
Dew Point 1 °F    
Average Humidity 63    
Maximum Humidity 76    
Minimum Humidity 50    
Precipitation  
Precipitation 0.29 in 0.09 in 1.01 in (2013)
Month to date precipitation 2.02 2.14  
Year to date precipitation 5.71 4.80  
Sea Level Pressure  
Sea Level Pressure 29.68 in    
Wind  
Wind Speed 13 mph (SW)    
Max Wind Speed 28 mph    
Max Gust Speed 37 mph    
Visibility 3 miles    
Events Snow    
T = Trace of Precipitation, MM = Missing Value Source: NWS Daily Summary

Daily Weather History Graph

Daily Weather History Graph

Search for Another Location

Airport or City:

Astronomy

Feb. 27, 2014 Rise Set
Actual Time 6:44 AM EST 5:49 PM EST
Civil Twilight 6:15 AM EST 6:18 PM EST
Nautical Twilight 5:41 AM EST 6:52 PM EST
Astronomical Twilight 5:08 AM EST 7:25 PM EST
Moon 5:17 AM EST 4:10 PM EST
Length of Visible Light 12h 03m
Length of Day
11h 05m
Waning Crescent, 4% of the Moon is Illuminated
Feb 27
Waning Crescent
Mar 1
New
Mar 8
First Quarter
Mar 16
Full
Mar 23
Last Quarter

Hourly Weather History & Observations

Time (EST) Temp. Windchill Dew Point Humidity Pressure Visibility Wind Dir Wind Speed Gust Speed Precip Events Conditions
12:16 AM 10.0 °F -0.9 °F 3.0 °F 73% 29.73 in 1.8 mi South 6.9 mph - 0.00 in Snow Light Snow
12:48 AM 10.0 °F -3.7 °F 3.0 °F 73% 29.72 in 0.8 mi South 10.4 mph - 0.00 in Snow Light Snow
12:56 AM 10.0 °F -1.9 °F 3.0 °F 73% 29.75 in 1.0 mi South 8.1 mph - 0.00 in Snow Light Snow
1:01 AM 10.0 °F -2.9 °F 1.9 °F 70% 29.71 in 2.0 mi South 9.2 mph - 0.00 in Snow Light Snow
1:09 AM 10.9 °F -1.8 °F -0.9 °F 59% 29.71 in 9.0 mi South 9.2 mph - 0.00 in   Overcast
1:22 AM 10.0 °F -2.9 °F -0.9 °F 61% 29.70 in 10.0 mi South 9.2 mph - 0.00 in   Overcast
1:56 AM 10.0 °F -2.9 °F -2.0 °F 58% 29.72 in 10.0 mi SSE 9.2 mph - 0.00 in   Overcast
2:56 AM 10.0 °F -5.2 °F -5.1 °F 51% 29.67 in 10.0 mi SSE 12.7 mph 20.7 mph N/A   Overcast
3:56 AM 10.9 °F -4.7 °F -2.0 °F 56% 29.63 in 3.0 mi SSE 13.8 mph 25.3 mph 0.00 in Snow Light Snow
4:01 AM 10.9 °F -4.7 °F -0.0 °F 61% 29.59 in 1.8 mi South 13.8 mph 25.3 mph 0.00 in Snow Light Snow
4:21 AM 10.9 °F -4.7 °F 1.9 °F 67% 29.57 in 2.0 mi SSE 13.8 mph 24.2 mph 0.00 in Snow Light Snow
4:31 AM 10.9 °F -2.6 °F 1.9 °F 67% 29.57 in 4.0 mi South 10.4 mph 20.7 mph 0.00 in   Haze
4:56 AM 10.9 °F -3.4 °F 1.9 °F 67% 29.59 in 5.0 mi SSE 11.5 mph 20.7 mph 0.00 in   Haze
5:56 AM 12.0 °F -4.0 °F -0.0 °F 59% 29.55 in 10.0 mi South 15.0 mph 21.9 mph N/A   Overcast
6:56 AM 14.0 °F -0.8 °F -0.9 °F 52% 29.53 in 10.0 mi South 13.8 mph 20.7 mph N/A   Overcast
7:56 AM 16.0 °F 0.6 °F -0.9 °F 47% 29.52 in 5.0 mi South 16.1 mph 28.8 mph N/A   Haze
8:32 AM 16.0 °F 0.6 °F -0.0 °F 49% 29.49 in 4.0 mi South 16.1 mph 26.5 mph 0.00 in   Haze
8:46 AM 16.0 °F 0.1 °F 1.0 °F 52% 29.49 in 1.8 mi SSW 17.3 mph 25.3 mph 0.00 in Snow Light Snow
8:56 AM 16.0 °F 1.7 °F 1.9 °F 54% 29.53 in 1.8 mi SSW 13.8 mph 24.2 mph 0.00 in Snow Light Snow
9:08 AM 14.0 °F 5.1 °F 6.1 °F 71% 29.51 in 0.2 mi Variable 5.8 mph - 0.00 in Snow Heavy Snow
9:17 AM 14.0 °F 0.5 °F 7.0 °F 74% 29.51 in 0.2 mi WNW 11.5 mph - 0.01 in Snow Heavy Snow
9:25 AM 12.9 °F 1.6 °F 7.0 °F 77% 29.51 in 0.2 mi NW 8.1 mph - 0.01 in Snow Heavy Snow
9:56 AM 12.9 °F 2.6 °F 7.0 °F 77% 29.55 in 0.2 mi West 6.9 mph - 0.03 in Snow Heavy Snow
10:56 AM 12.9 °F 3.8 °F 7.0 °F 77% 29.57 in 0.2 mi WSW 5.8 mph - 0.06 in Snow Heavy Snow
11:09 AM 12.9 °F 3.8 °F 7.0 °F 77% 29.54 in 0.2 mi WSW 5.8 mph - 0.02 in Snow Heavy Snow
11:32 AM 12.9 °F 3.8 °F 7.0 °F 77% 29.54 in 0.2 mi WSW 5.8 mph - 0.05 in Snow Heavy Snow
11:56 AM 12.9 °F 1.6 °F 7.0 °F 77% 29.58 in 0.2 mi SW 8.1 mph - 0.08 in Snow Heavy Snow
12:56 PM 12.9 °F 6.9 °F 7.0 °F 77% 29.58 in 0.2 mi WSW 3.5 mph - 0.06 in Snow Heavy Snow
1:39 PM 15.1 °F - 8.1 °F 74% 29.55 in 0.2 mi Calm Calm - 0.03 in Snow Heavy Snow
1:46 PM 14.0 °F 6.5 °F 7.0 °F 74% 29.56 in 0.5 mi SW 4.6 mph - 0.03 in Snow Snow
1:56 PM 14.0 °F 6.5 °F 7.0 °F 74% 29.60 in 0.5 mi WSW 4.6 mph - 0.04 in Snow Snow
2:09 PM 14.0 °F 5.1 °F 7.0 °F 74% 29.57 in 0.5 mi SW 5.8 mph - 0.00 in Snow Snow
2:23 PM 14.0 °F 2.9 °F 7.0 °F 74% 29.58 in 1.5 mi SW 8.1 mph - 0.00 in Snow Light Snow
2:28 PM 14.0 °F 3.9 °F 6.1 °F 71% 29.58 in 2.0 mi SW 6.9 mph - 0.00 in Snow Light Snow
2:38 PM 14.0 °F 5.1 °F 6.1 °F 71% 29.59 in 5.0 mi SW 5.8 mph - 0.00 in Snow Light Snow
2:56 PM 15.1 °F 4.2 °F 6.1 °F 68% 29.63 in 10.0 mi SW 8.1 mph - 0.00 in   Overcast
3:54 PM 14.0 °F -5.5 °F 3.2 °F 62% 29.65 in 1.8 mi West 25.3 mph 34.5 mph N/A   Haze
4:01 PM 12.9 °F -7.6 °F 3.0 °F 65% 29.66 in 0.2 mi West 27.6 mph 36.8 mph 0.00 in Snow Heavy Snow
4:34 PM 12.0 °F -6.5 °F -0.9 °F 56% 29.69 in 0.8 mi West 20.7 mph 28.8 mph 0.02 in Snow Light Snow
4:42 PM 12.0 °F -4.5 °F -4.0 °F 49% 29.70 in 1.2 mi West 16.1 mph 28.8 mph 0.02 in   Haze
4:47 PM 10.9 °F -5.4 °F -4.0 °F 51% 29.71 in 3.0 mi West 15.0 mph 24.2 mph 0.02 in   Haze
4:56 PM 10.9 °F -4.7 °F -4.0 °F 51% 29.75 in 10.0 mi West 13.8 mph - 0.02 in   Mostly Cloudy
5:31 PM 10.0 °F -10.4 °F -4.0 °F 53% 29.75 in 1.5 mi West 24.2 mph 34.5 mph 0.00 in   Haze
5:39 PM 9.0 °F -11.8 °F -2.9 °F 59% 29.76 in 0.2 mi West 24.2 mph 34.5 mph 0.00 in Snow Heavy Snow
5:56 PM 8.1 °F -12.2 °F -2.9 °F 61% 29.82 in 0.2 mi West 21.9 mph 32.2 mph 0.00 in Snow Heavy Snow
6:11 PM 8.1 °F -11.2 °F -4.0 °F 58% 29.80 in 1.0 mi West 19.6 mph 32.2 mph 0.00 in Snow Light Snow
6:56 PM 5.0 °F -15.2 °F -6.0 °F 61% 29.89 in 1.5 mi West 19.6 mph - 0.00 in Snow Light Snow
7:07 PM 5.0 °F -15.7 °F -7.1 °F 58% 29.86 in 0.8 mi West 20.7 mph 29.9 mph 0.00 in Snow Light Snow
7:11 PM 5.0 °F -15.7 °F -6.0 °F 61% 29.87 in 1.2 mi West 20.7 mph 33.4 mph 0.00 in Snow Light Snow
7:26 PM 5.0 °F -15.7 °F -6.0 °F 61% 29.88 in 2.5 mi West 20.7 mph 27.6 mph 0.00 in Snow Light Snow
7:42 PM 5.0 °F -16.2 °F -5.1 °F 63% 29.89 in 1.8 mi West 21.9 mph 29.9 mph 0.00 in Snow Light Snow
7:56 PM 5.0 °F -15.7 °F -4.0 °F 66% 29.93 in 1.8 mi West 20.7 mph 31.1 mph 0.00 in Snow Light Snow
8:00 PM 5.0 °F -15.2 °F -4.0 °F 66% 29.90 in 3.0 mi West 19.6 mph 31.1 mph 0.00 in   Haze
8:56 PM 5.0 °F -13.0 °F -7.1 °F 58% 29.98 in 10.0 mi West 15.0 mph - 0.00 in   Clear
9:56 PM 3.9 °F -14.3 °F -7.1 °F 60% 30.01 in 10.0 mi West 15.0 mph - N/A   Clear
10:56 PM 3.9 °F -14.3 °F -8.0 °F 58% 30.05 in 10.0 mi West 15.0 mph - N/A   Partly Cloudy
11:56 PM 3.9 °F -15.0 °F -7.1 °F 60% 30.09 in 10.0 mi West 16.1 mph - N/A   Clear